Weather History for Ambler, AK

Change the Weather History Date:

Friday, June 21, 2013

  Actual Average Record
Temperature  
Mean Temperature 63 °F -  
Max Temperature 71 °F 63 °F 92 °F (1991)
Min Temperature 55 °F 46 °F 32 °F (2002)
Degree Days  
Heating Degree Days 2    
Growing Degree Days 13 (Base 50)    
Moisture  
Dew Point 48 °F    
Average Humidity 59    
Maximum Humidity 88    
Minimum Humidity 38    
Precipitation  
Precipitation 0.15 in - - ()
Sea Level Pressure  
Sea Level Pressure 29.81 in    
Wind  
Wind Speed 6 mph (West)    
Max Wind Speed 14 mph    
Max Gust Speed 21 mph    
Visibility 10 miles    
Events      
Averages and records for this station are not official NWS values.
T = Trace of Precipitation, MM = Missing Value Source: NWS Daily Summary

Daily Weather History Graph

Daily Weather History Graph

Search for Another Location

Airport:

Trip Planner

Search our weather history database for the weather conditions in past years. The results will help you decide how hot, cold, wet, or windy it might be!

Date:

Astronomy

Jun. 21, 2013 Rise Set
Actual Time 3:05 AM AKDT 2:01 AM AKDT
Civil Twilight Sun does not rise Sun does not rise
Nautical Twilight Sun does not rise Sun does not rise
Astronomical Twilight Sun does not rise Sun does not rise
Moon 11:25 PM AKDT (6/21) 2:47 AM AKDT (6/21)
Length of Visible Light 24h 00m
Length of Day
22h 55m
Waxing Gibbous, 96% of the Moon is Illuminated
Jun 21
Waxing Gibbous
Jun 23
Full
Jun 29
Last Quarter
Jul 7
New
Jul 15
First Quarter

Hourly Weather History & Observations

Time (AKDT) Temp. Dew Point Humidity Pressure Visibility Wind Dir Wind Speed Gust Speed Precip Events Conditions
12:16 AM 69.8 °F 42.8 °F 38% 29.84 in 10.0 mi WNW 6.9 mph - N/A   Clear
12:36 AM 66.2 °F 42.8 °F 43% 29.84 in 10.0 mi West 5.8 mph - N/A   Clear
12:56 AM 66.2 °F 42.8 °F 43% 29.83 in 10.0 mi WNW 5.8 mph - N/A   Scattered Clouds
1:16 AM 64.4 °F 44.6 °F 49% 29.83 in 10.0 mi WNW 6.9 mph - N/A   Partly Cloudy
1:36 AM 64.4 °F 44.6 °F 49% 29.82 in 10.0 mi West 6.9 mph - N/A   Scattered Clouds
1:56 AM 62.6 °F 44.6 °F 52% 29.82 in 10.0 mi WNW 6.9 mph - N/A   Partly Cloudy
2:16 AM 62.6 °F 44.6 °F 52% 29.83 in 10.0 mi NW 4.6 mph - N/A   Clear
2:36 AM 60.8 °F 44.6 °F 55% 29.84 in 10.0 mi WNW 4.6 mph - N/A   Clear
2:56 AM 60.8 °F 44.6 °F 55% 29.83 in 10.0 mi WNW 6.9 mph - N/A   Clear
3:16 AM 60.8 °F 44.6 °F 55% 29.83 in 10.0 mi West 8.1 mph - N/A   Partly Cloudy
3:36 AM 59.0 °F 44.6 °F 59% 29.83 in 10.0 mi West 6.9 mph - N/A   Clear
3:56 AM 59.0 °F 44.6 °F 59% 29.83 in 10.0 mi West 6.9 mph - N/A   Clear
4:16 AM 57.2 °F 44.6 °F 63% 29.83 in 10.0 mi WNW 8.1 mph - N/A   Clear
4:36 AM 57.2 °F 44.6 °F 63% 29.83 in 10.0 mi WNW 6.9 mph - N/A   Clear
4:56 AM 57.2 °F 44.6 °F 63% 29.83 in 10.0 mi NW 5.8 mph - N/A   Clear
5:16 AM 57.2 °F 44.6 °F 63% 29.82 in 10.0 mi WNW 5.8 mph - N/A   Clear
5:36 AM 57.2 °F 46.4 °F 67% 29.83 in 10.0 mi West 6.9 mph - N/A   Clear
5:56 AM 57.2 °F 44.6 °F 63% 29.82 in 10.0 mi WNW 4.6 mph - N/A   Clear
6:16 AM 57.2 °F 46.4 °F 67% 29.82 in 10.0 mi NW 4.6 mph - N/A   Clear
6:36 AM 57.2 °F 46.4 °F 67% 29.82 in 10.0 mi West 5.8 mph - N/A   Clear
6:56 AM 57.2 °F 46.4 °F 67% 29.82 in 10.0 mi West 5.8 mph - N/A   Clear
7:16 AM 59.0 °F 46.4 °F 63% 29.82 in 10.0 mi West 5.8 mph - N/A   Clear
7:36 AM 59.0 °F 46.4 °F 63% 29.82 in 10.0 mi West 3.5 mph - N/A   Clear
7:56 AM 60.8 °F 46.4 °F 59% 29.82 in 10.0 mi West 4.6 mph - N/A   Clear
8:16 AM 60.8 °F 48.2 °F 63% 29.82 in 10.0 mi Calm Calm - N/A   Clear
8:36 AM 62.6 °F 46.4 °F 55% 29.82 in 10.0 mi SW 6.9 mph - N/A   Clear
8:56 AM 62.6 °F 46.4 °F 55% 29.83 in 10.0 mi SW 4.6 mph - N/A   Clear
9:16 AM 64.4 °F 46.4 °F 52% 29.83 in 10.0 mi WSW 6.9 mph - N/A   Clear
9:36 AM 66.2 °F 46.4 °F 49% 29.82 in 10.0 mi West 4.6 mph - N/A   Clear
9:56 AM 66.2 °F 48.2 °F 52% 29.82 in 10.0 mi SW 3.5 mph - N/A   Clear
10:16 AM 68.0 °F 48.2 °F 49% 29.82 in 10.0 mi South 4.6 mph - N/A   Partly Cloudy
10:36 AM 68.0 °F 48.2 °F 49% 29.82 in 10.0 mi WSW 4.6 mph - N/A   Scattered Clouds
10:56 AM 69.8 °F 48.2 °F 46% 29.82 in 10.0 mi South 4.6 mph - N/A   Clear
11:16 AM 69.8 °F 48.2 °F 46% 29.82 in 10.0 mi West 5.8 mph - N/A   Clear
11:36 AM 71.6 °F 48.2 °F 43% 29.82 in 10.0 mi WSW 5.8 mph - N/A   Mostly Cloudy
11:56 AM 71.6 °F 46.4 °F 41% 29.82 in 10.0 mi West 6.9 mph - N/A   Overcast
12:16 PM 71.6 °F 46.4 °F 41% 29.82 in 10.0 mi WSW 10.4 mph - N/A   Mostly Cloudy
12:36 PM 71.6 °F 48.2 °F 43% 29.82 in 10.0 mi West 8.1 mph 17.3 mph N/A   Overcast
12:56 PM 71.6 °F 46.4 °F 41% 29.81 in 10.0 mi West 9.2 mph - N/A   Mostly Cloudy
1:16 PM 71.6 °F 46.4 °F 41% 29.81 in 10.0 mi WNW 8.1 mph - N/A   Overcast
1:36 PM 71.6 °F 46.4 °F 41% 29.81 in 10.0 mi West 4.6 mph - N/A   Overcast
1:56 PM 71.6 °F 46.4 °F 41% 29.81 in 10.0 mi West 6.9 mph - N/A   Overcast
2:16 PM 71.6 °F 46.4 °F 41% 29.80 in 10.0 mi WSW 8.1 mph - N/A   Overcast
2:36 PM 71.6 °F 50.0 °F 46% 29.80 in 10.0 mi SSW 8.1 mph - N/A   Overcast
2:56 PM 68.0 °F 48.2 °F 49% 29.80 in 10.0 mi SSW 11.5 mph 18.4 mph N/A   Overcast
3:16 PM 62.6 °F 50.0 °F 63% 29.83 in 10.0 mi SSW 12.7 mph 20.7 mph N/A   Overcast
3:36 PM 57.2 °F 51.8 °F 82% 29.85 in 10.0 mi SSW 5.8 mph - 0.04 in   Overcast
3:56 PM 57.2 °F 53.6 °F 88% 29.82 in 10.0 mi WNW 8.1 mph - 0.11 in   Overcast
4:16 PM 59.0 °F 53.6 °F 82% 29.81 in 10.0 mi West 4.6 mph - 0.01 in   Overcast
4:36 PM 60.8 °F 55.4 °F 82% 29.81 in 10.0 mi West 4.6 mph - 0.01 in   Overcast
4:56 PM 62.6 °F 55.4 °F 77% 29.80 in 10.0 mi WNW 6.9 mph - 0.01 in   Overcast
5:16 PM 62.6 °F 53.6 °F 72% 29.81 in 10.0 mi Calm Calm - N/A   Scattered Clouds
5:36 PM 64.4 °F 51.8 °F 64% 29.80 in 10.0 mi NNW 4.6 mph - N/A   Clear
5:56 PM 66.2 °F 50.0 °F 56% 29.79 in 10.0 mi Calm Calm - N/A   Partly Cloudy
6:16 PM 66.2 °F 48.2 °F 52% 29.79 in 10.0 mi Calm Calm - N/A   Partly Cloudy
6:36 PM 66.2 °F 53.6 °F 64% 29.79 in 10.0 mi Calm Calm - N/A   Clear
6:56 PM 68.0 °F 53.6 °F 60% 29.79 in 10.0 mi Calm Calm - N/A   Clear
7:16 PM 68.0 °F 51.8 °F 56% 29.78 in 10.0 mi Calm Calm - N/A   Clear
7:36 PM 68.0 °F 53.6 °F 60% 29.78 in 10.0 mi Calm Calm - N/A   Clear
7:56 PM 68.0 °F 51.8 °F 56% 29.78 in 10.0 mi Calm Calm - N/A   Clear
8:16 PM 69.8 °F 51.8 °F 53% 29.78 in 10.0 mi Calm Calm - N/A   Clear
8:36 PM 69.8 °F 51.8 °F 53% 29.78 in 10.0 mi Calm Calm - N/A   Partly Cloudy
8:56 PM 66.2 °F 51.8 °F 60% 29.78 in 10.0 mi Calm Calm - N/A   Mostly Cloudy
9:16 PM 66.2 °F 51.8 °F 60% 29.79 in 10.0 mi South 13.8 mph 20.7 mph N/A   Overcast
9:36 PM 59.0 °F 51.8 °F 77% 29.80 in 10.0 mi SSW 9.2 mph - N/A   Overcast
9:56 PM 57.2 °F 51.8 °F 82% 29.81 in 8.0 mi WSW 5.8 mph - 0.01 in   Overcast
10:16 PM 57.2 °F 51.8 °F 82% 29.79 in 10.0 mi WNW 5.8 mph - 0.01 in   Overcast
10:36 PM 57.2 °F 51.8 °F 82% 29.80 in 10.0 mi South 4.6 mph - 0.02 in   Overcast
10:56 PM 57.2 °F 51.8 °F 82% 29.80 in 10.0 mi Calm Calm - 0.02 in   Overcast
11:16 PM 55.4 °F 51.8 °F 88% 29.80 in 10.0 mi Calm Calm - N/A   Overcast
11:36 PM 55.4 °F 51.8 °F 88% 29.81 in 10.0 mi Calm Calm - N/A   Overcast
11:56 PM 55.4 °F 51.8 °F 88% 29.82 in 10.0 mi Calm Calm - N/A   Overcast